Flag for Australia Weather past 2 weeks in Eucla, Western Australia, Australia

Now
52 °F

Cool.


Feels Like: 50 °F
Forecast: 63 / 74 °F
Wind: 7 mph from Northeast

Location: Eucla Amo


UV Index: 5 (Moderate)

Visibility: N/A


Pressure: 30.04 "Hg

Humidity: 95%

Dew point: 51 °F

Location of EuclaLocation

Historic Weather in Eucla

°F

Eucla temperature yesterday

Maximum temperature yesterday: 75 °F (at 11:45 AM)
Minimum temperature yesterday: 51 °F (at 6:45 AM)
Average temperature yesterday: 62 °F

Past Weeks' High & Low Weather Summary

 TemperatureHumidityPressure
High94 °F (Apr 20, 2:45 PM)98% (Apr 9, 3:45 AM)30.27 "Hg (Apr 9, 3:45 AM)
Low51 °F (Apr 23, 6:45 AM)11% (Apr 20, 2:45 PM)29.81 "Hg (Apr 20, 3:45 PM)
Average65 °F76%30.09 "Hg
* Reported Apr 9 3:45 AM — Apr 24 3:45 AM, Eucla, Weather by CustomWeather, © 2014

Note: Actual official high and low records may vary slightly from our data, if they occured in-between our weather recording intervals... More about our weather records

Advertising

Historic Weather Conditions — Data for Previous 24 hours

 ConditionsComfort  
Time TempWeatherWind HumidityBarometerVisibility
3:45 AM
Apr 24
52 °FCool.7 mph95%30.04 "HgN/A
2:45 AM53 °FCool.7 mph94%30.04 "HgN/A
12:45 AM56 °FCool.7 mph95%30.06 "HgN/A
11:45 PM
Apr 23
55 °FCool.7 mph93%30.06 "HgN/A
9:45 PM60 °FCool.6 mph83%30.08 "HgN/A
8:45 PM62 °FCool.6 mph80%30.06 "HgN/A
6:45 PM63 °FMild.6 mph74%30.04 "HgN/A
5:45 PM64 °FMild.6 mph71%30.01 "HgN/A
3:45 PM71 °FScattered clouds.9 mph50%29.99 "Hg25 mi
2:45 PM73 °FMild.9 mph46%29.98 "HgN/A
12:45 PM73 °FMild.10 mph44%30.01 "HgN/A
11:45 AM75 °FMild.6 mph38%30.04 "HgN/A
9:45 AM69 °FSunny.9 mph49%30.08 "Hg25 mi
8:45 AM63 °FMild.8 mph70%30.09 "HgN/A
6:45 AM51 °FCool.7 mph98%30.07 "HgN/A
5:45 AM51 °FCool.7 mph98%30.08 "HgN/A
Weather by CustomWeather, © 2014

See weather overview